This is the latest recevied weather packets stored in our database for station/object KL7AF. If no packets are shown the sender has not sent any weather packets the latest 10 day(s).
| Time | Temp. | Humidity | Pressure | Rain* | Wind** | Luminosity | Snow |
|---|---|---|---|---|---|---|---|
| 1788541301 | 33.33° C | 65% | 1018.2 hPa | 0 mm | - | 140 W/m² | - |
| 1788541001 | 33.33° C | 63% | 1077.6 hPa | 0 mm | - | 347 W/m² | - |
| 1788540700 | 33.33° C | 63% | 1077.8 hPa | 0 mm | - | 197 W/m² | - |
| 1788540400 | 33.33° C | 63% | 1077.8 hPa | 0 mm | - | 628 W/m² | - |
| 1788540099 | 33.33° C | 63% | 1077.9 hPa | 0 mm | - | 275 W/m² | - |
| 1788539798 | 33.33° C | 65% | 1078 hPa | 0 mm | - | 385 W/m² | - |
| 1788539498 | 33.33° C | 64% | 1078 hPa | 0 mm | - | 511 W/m² | - |
| 1788539197 | 33.33° C | 65% | 1018.4 hPa | 0 mm | - | 313 W/m² | - |
| 1788538896 | 33.33° C | 66% | 1077.9 hPa | 0 mm | - | 108 W/m² | - |
| 1788538595 | 33.33° C | 66% | 1078 hPa | 0 mm | - | 136 W/m² | - |
| 1788538295 | 33.33° C | 65% | 1078 hPa | 0 mm | - | 173 W/m² | - |
| 1788537995 | 33.33° C | 64% | 1078 hPa | 0 mm | - | 121 W/m² | - |
| 1788537694 | 33.89° C | 62% | 1077.8 hPa | 0 mm | - | 82 W/m² | - |
| 1788537394 | 33.89° C | 64% | 1077.8 hPa | 0 mm | - | 247 W/m² | - |
| 1788537093 | 33.33° C | 64% | 1077.8 hPa | 0 mm | - | 269 W/m² | - |
| 1788536792 | 33.33° C | 65% | 1077.9 hPa | 0 mm | - | 482 W/m² | - |
| 1788536492 | 32.78° C | 67% | 1078 hPa | 0 mm | - | 680 W/m² | - |
| 1788536191 | 32.78° C | 67% | 1078 hPa | 0 mm | - | 665 W/m² | - |
| 1788535891 | 32.22° C | 68% | 1078.1 hPa | 0 mm | - | 639 W/m² | - |
| 1788535591 | 32.22° C | 69% | 1078.1 hPa | 0 mm | - | 631 W/m² | - |
| 1788535290 | 32.22° C | 70% | 1078.1 hPa | 0 mm | - | 616 W/m² | - |
| 1788534990 | 31.67° C | 69% | 1078.2 hPa | 0 mm | - | 619 W/m² | - |
| 1788534689 | 31.11° C | 71% | 1078.3 hPa | 0 mm | - | 600 W/m² | - |
| 1788534388 | 30.56° C | 72% | 1078.4 hPa | 0 mm | - | 592 W/m² | - |
| 1788534087 | 30.56° C | 75% | 1078.4 hPa | 0 mm | - | 575 W/m² | - |
* Rain latest hour (hover to see other rain measurements)
** Current wind speed in m/s (hover to see current wind gust speed)